GW0774 Weather Reports


time (UTC)temp
C
wind
direction
speed
KPH
gust
KPH
rain 1hr
cm
rain 24hr
cm
rain mn
cm
humidity
%
barometer
mb
20260510231040 12 107 20.9 29.0 0.00 0.00 0.00 61 1019.1
20260510230547 12 107 19.3 29.0 0.00 0.00 0.00 62 1019.1
20260510230048 12 115 17.7 29.0 0.00 0.00 0.00 63 1019.0
20260510225541 12 77 19.3 25.7 0.00 0.00 0.00 64 1019.0
20260510225045 12 119 14.5 25.7 0.00 0.00 0.00 66 1019.0
20260510224545 12 109 16.1 32.2 0.00 0.00 0.00 63 1019.0
20260510224036 12 101 16.1 32.2 0.00 0.00 0.00 66 1018.9
20260510223543 12 99 19.3 32.2 0.00 0.00 0.00 64 1019.0
20260510223045 12 80 17.7 32.2 0.00 0.00 0.00 67 1018.9
20260510222538 11 96 17.7 29.0 0.00 0.00 0.00 66 1018.8
20260510222035 11 89 20.9 29.0 0.00 0.00 0.00 65 1018.7
20260510221542 12 92 20.9 29.0 0.00 0.00 0.00 65 1018.6
20260510221039 11 103 20.9 29.0 0.00 0.00 0.00 65 1018.6
20260510220540 11 103 16.1 25.7 0.00 0.00 0.00 65 1018.5
20260510220048 11 111 17.7 25.7 0.00 0.00 0.00 66 1018.5
20260510215538 11 90 17.7 22.5 0.00 0.00 0.00 67 1018.3
20260510215042 11 91 17.7 22.5 0.00 0.00 0.00 65 1018.5
20260510214554 11 92 16.1 22.5 0.00 0.00 0.00 66 1018.4
20260510214039 11 107 12.9 20.9 0.00 0.00 0.00 65 1018.4
20260510213540 11 105 11.3 20.9 0.00 0.00 0.00 67 1018.3
20260510213047 11 110 9.7 16.1 0.00 0.00 0.00 68 1018.3
20260510212539 11 105 8.0 14.5 0.00 0.00 0.00 67 1018.1
20260510212039 11 121 4.8 14.5 0.00 0.00 0.00 67 1018.1
20260510211546 11 107 8.0 14.5 0.00 0.00 0.00 68 1018.2
20260510211043 11 105 6.4 11.3 0.00 0.00 0.00 68 1018.1
20260510210539 10 92 4.8 17.7 0.00 0.00 0.00 69 1018.0
20260510210045 10 109 9.7 24.1 0.00 0.00 0.00 69 1018.0
20260510205539 10 97 12.9 24.1 0.00 0.00 0.00 69 1017.9
20260510205039 10 86 14.5 22.5 0.00 0.00 0.00 69 1017.8
20260510204556 10 86 8.0 16.1 0.00 0.00 0.00 72 1017.7
20260510204039 9 118 6.4 12.9 0.00 0.00 0.00 71 1017.6
20260510203539 9 105 3.2 11.3 0.00 0.00 0.00 72 1017.6
20260510203048 9 117 4.8 12.9 0.00 0.00 0.00 72 1017.4
20260510202539 10 118 6.4 12.9 0.00 0.00 0.00 71 1017.4
20260510202038 10 106 3.2 14.5 0.00 0.00 0.00 72 1017.3
20260510201549 10 105 4.8 14.5 0.00 0.00 0.00 71 1017.2
20260510201039 10 104 6.4 14.5 0.00 0.00 0.00 72 1017.2
20260510200539 9 119 3.2 11.3 0.00 0.00 0.00 73 1017.1
20260510200046 9 128 6.4 14.5 0.00 0.00 0.00 73 1016.8
20260510195539 9 111 6.4 19.3 0.00 0.00 0.00 73 1016.8
20260510195039 9 121 9.7 19.3 0.00 0.00 0.00 73 1016.6
20260510194556 9 99 11.3 22.5 0.00 0.00 0.00 73 1016.5
20260510194042 9 113 9.7 22.5 0.00 0.00 0.00 72 1016.3
20260510193539 9 100 12.9 24.1 0.00 0.00 0.00 72 1016.1
20260510193052 9 132 12.9 24.1 0.00 0.00 0.00 73 1016.0
20260510192539 9 89 14.5 33.8 0.00 0.00 0.00 72 1016.1
20260510192039 9 101 14.5 33.8 0.00 0.00 0.00 72 1015.9
20260510191555 9 103 17.7 25.7 0.00 0.00 0.00 72 1015.9
20260510191039 9 95 17.7 25.7 0.00 0.00 0.00 72 1015.8
20260510190539 9 129 12.9 25.7 0.00 0.00 0.00 72 1015.7
20260510190051 9 95 17.7 30.6 0.00 0.00 0.00 72 1015.6
20260510185539 9 104 20.9 33.8 0.00 0.00 0.00 71 1015.5
20260510185039 9 119 17.7 33.8 0.00 0.00 0.00 73 1015.3
20260510184547 9 92 19.3 30.6 0.00 0.00 0.00 73 1015.3
20260510184043 9 111 14.5 24.1 0.00 0.00 0.00 75 1015.2
20260510183541 9 98 14.5 24.1 0.00 0.00 0.00 75 1015.1
20260510183049 9 105 14.5 25.7 0.00 0.00 0.00 76 1015.1
20260510182539 9 105 14.5 25.7 0.00 0.00 0.00 76 1015.0
20260510182039 9 92 16.1 25.7 0.00 0.00 0.00 75 1014.7
20260510181607 9 114 16.1 25.7 0.00 0.00 0.00 76 1014.7
20260510181044 9 94 12.9 25.7 0.00 0.00 0.00 77 1014.6
20260510180540 9 99 16.1 32.2 0.00 0.00 0.00 77 1014.6
20260510180107 9 115 17.7 32.2 0.00 0.00 0.00 77 1014.4
20260510175539 9 86 17.7 30.6 0.00 0.00 0.00 78 1014.3
20260510175040 9 82 12.9 20.9 0.00 0.00 0.00 79 1014.2
20260510174551 9 92 8.0 16.1 0.00 0.00 0.00 80 1014.1
20260510174039 9 105 9.7 19.3 0.00 0.00 0.00 79 1013.9
20260510173539 9 103 14.5 20.9 0.00 0.00 0.00 78 1013.9
20260510173051 9 103 14.5 20.9 0.00 0.00 0.00 79 1013.8
20260510172539 9 91 14.5 20.9 0.00 0.00 0.00 79 1013.8
20260510172040 9 115 11.3 20.9 0.00 0.00 0.00 79 1013.6
20260510171558 9 103 14.5 20.9 0.00 0.00 0.00 79 1013.6
20260510171039 9 88 9.7 19.3 0.00 0.00 0.00 80 1013.5
20260510170539 9 105 11.3 20.9 0.00 0.00 0.00 80 1013.4
20260510170050 9 100 11.3 20.9 0.00 0.00 0.00 80 1013.3
20260510165539 9 100 14.5 27.4 0.00 0.00 0.00 80 1013.2
20260510165038 9 110 17.7 27.4 0.00 0.00 0.00 80 1013.0
20260510164552 9 102 14.5 24.1 0.00 0.00 0.00 80 1012.9
20260510164040 9 94 11.3 19.3 0.00 0.00 0.00 81 1012.6
20260510163539 9 103 9.7 25.7 0.00 0.00 0.00 81 1012.5
20260510163049 9 108 11.3 25.7 0.00 0.00 0.00 82 1012.4
20260510162539 9 88 12.9 25.7 0.00 0.00 0.00 80 1012.4
20260510162038 9 121 14.5 27.4 0.00 0.00 0.00 79 1012.3
20260510161549 9 150 16.1 27.4 0.00 0.00 0.00 79 1012.2
20260510161039 9 109 19.3 29.0 0.00 0.00 0.00 80 1012.1
20260510160540 9 100 17.7 33.8 0.00 0.00 0.00 81 1012.0
20260510160046 9 96 17.7 35.4 0.00 0.00 0.00 82 1011.8
20260510155540 9 115 24.1 38.6 0.00 0.00 0.00 81 1011.7
20260510155040 9 84 24.1 40.2 0.00 0.00 0.00 80 1011.5
20260510154553 9 105 22.5 40.2 0.00 0.00 0.00 80 1011.4
20260510154040 9 157 22.5 40.2 0.00 0.00 0.00 80 1011.4
20260510153542 9 113 22.5 32.2 0.00 0.00 0.00 80 1011.2
20260510153052 9 128 19.3 32.2 0.00 0.00 0.00 79 1011.2
20260510152539 9 98 19.3 32.2 0.00 0.00 0.00 79 1011.1
20260510152040 10 59 19.3 32.2 0.00 0.00 0.00 78 1011.0
20260510151548 10 114 22.5 32.2 0.00 0.00 0.00 77 1010.9
20260510151039 10 71 17.7 30.6 0.00 0.00 0.00 78 1010.9
20260510150539 10 111 16.1 29.0 0.00 0.00 0.00 77 1010.8
20260510150118 9 110 16.1 29.0 0.00 0.00 0.00 78 1010.8
20260510145538 9 90 16.1 29.0 0.00 0.00 0.00 79 1010.8
20260510145039 9 89 19.3 30.6 0.00 0.00 0.00 80 1010.7
20260510144544 9 109 16.1 30.6 0.00 0.00 0.00 82 1010.6
20260510144040 10 85 19.3 29.0 0.00 0.00 0.00 82 1010.6
20260510143539 10 92 19.3 37.0 0.00 0.00 0.00 81 1010.4
20260510143049 10 98 20.9 37.0 0.00 0.00 0.00 80 1010.2
20260510142540 10 103 16.1 33.8 0.00 0.00 0.00 79 1010.1
20260510142039 10 107 16.1 25.7 0.00 0.00 0.00 79 1010.1
20260510141551 10 100 14.5 22.5 0.00 0.00 0.00 78 1010.0
20260510141041 10 116 11.3 22.5 0.00 0.00 0.00 78 1009.8
20260510140538 10 106 12.9 20.9 0.00 0.00 0.00 78 1009.7
20260510140048 10 107 11.3 22.5 0.00 0.00 0.00 79 1009.6
20260510135539 10 101 14.5 29.0 0.00 0.00 0.00 78 1009.5
20260510135040 10 89 14.5 29.0 0.00 0.00 0.00 78 1009.5
20260510134548 10 101 16.1 30.6 0.00 0.00 0.00 78 1009.4
20260510134045 10 104 19.3 30.6 0.00 0.00 0.00 78 1009.2
20260510133538 10 87 14.5 30.6 0.00 0.00 0.00 79 1009.3
20260510133047 10 101 14.5 33.8 0.00 0.00 0.00 80 1009.3
20260510132540 10 92 20.9 35.4 0.00 0.00 0.00 80 1009.2
20260510132040 10 102 22.5 35.4 0.00 0.00 0.00 80 1009.1
20260510131545 10 107 19.3 40.2 0.00 0.00 0.00 81 1009.0
20260510131040 10 86 22.5 40.2 0.00 0.00 0.00 81 1009.0
20260510130539 10 88 24.1 40.2 0.00 0.00 0.00 81 1008.9
20260510130044 10 98 20.9 35.4 0.00 0.00 0.00 81 1008.8
20260510125538 10 111 19.3 37.0 0.00 0.00 0.00 81 1008.5
20260510125039 10 87 22.5 37.0 0.00 0.00 0.00 81 1008.6
20260510124553 10 92 19.3 33.8 0.00 0.00 0.00 81 1008.6
20260510124039 10 93 17.7 37.0 0.00 0.00 0.00 80 1008.3
20260510123539 10 101 20.9 37.0 0.00 0.00 0.00 80 1008.2
20260510123047 10 83 22.5 37.0 0.00 0.00 0.00 81 1008.2
20260510122539 10 122 25.7 37.0 0.00 0.00 0.00 80 1007.9
20260510122039 10 147 24.1 37.0 0.00 0.00 0.00 80 1007.8
20260510121546 10 91 22.5 37.0 0.00 0.00 0.00 80 1007.7
20260510121039 10 106 20.9 37.0 0.00 0.00 0.00 80 1007.6
20260510120542 10 86 25.7 37.0 0.00 0.00 0.00 80 1007.4
20260510120044 10 74 27.4 37.0 0.00 0.00 0.00 81 1007.3
20260510115539 10 88 20.9 43.5 0.00 0.00 0.00 81 1007.3
20260510115039 10 84 22.5 45.1 0.00 0.00 0.00 80 1007.2
20260510114551 10 71 24.1 45.1 0.00 0.00 0.00 81 1007.1
20260510114040 10 78 22.5 35.4 0.00 0.00 0.00 81 1007.1
20260510113539 10 86 19.3 32.2 0.00 0.00 0.00 81 1007.1
20260510113041 10 95 19.3 32.2 0.00 0.00 0.00 81 1006.9
20260510112543 10 94 17.7 33.8 0.00 0.00 0.00 81 1006.8
20260510112039 10 105 19.3 33.8 0.00 0.00 0.00 81 1006.7
20260510111558 10 92 20.9 30.6 0.00 0.00 0.00 81 1006.6
20260510111039 10 92 20.9 30.6 0.00 0.00 0.00 81 1006.5
20260510110539 10 106 20.9 30.6 0.00 0.00 0.00 82 1006.8
20260510110048 10 78 19.3 35.4 0.00 0.00 0.00 83 1006.6
20260510105540 10 92 20.9 35.4 0.00 0.00 0.00 83 1006.4
20260510105039 10 89 19.3 35.4 0.00 0.00 0.00 83 1006.3
20260510104551 10 89 22.5 35.4 0.00 0.00 0.00 84 1006.2
20260510104038 11 90 20.9 33.8 0.00 0.00 0.00 83 1006.1
20260510103613 11 147 16.1 33.8 0.00 0.00 0.00 83 1006.1
20260510103054 11 128 22.5 33.8 0.00 0.00 0.00 83 1006.1
20260510102539 11 62 16.1 29.0 0.00 0.00 0.00 85 1005.7
20260510102042 11 101 19.3 29.0 0.00 0.00 0.00 85 1005.5
20260510101547 11 99 16.1 27.4 0.00 0.00 0.00 84 1005.5
20260510101039 11 82 16.1 22.5 0.00 0.00 0.00 83 1005.4
20260510100539 11 90 14.5 20.9 0.00 0.00 0.00 83 1005.3
20260510100051 11 102 11.3 20.9 0.00 0.00 0.00 84 1005.3
20260510095540 11 105 14.5 20.9 0.00 0.00 0.00 84 1005.3
20260510095038 11 107 11.3 17.7 0.00 0.00 0.00 84 1005.1
20260510094556 11 88 9.7 17.7 0.00 0.00 0.00 85 1005.0
20260510094038 11 94 9.7 17.7 0.00 0.00 0.00 84 1004.9
20260510093539 12 101 8.0 19.3 0.00 0.00 0.00 84 1005.0
20260510093050 12 90 12.9 19.3 0.00 0.00 0.00 84 1004.9
20260510092540 11 100 12.9 19.3 0.00 0.00 0.00 84 1004.9
20260510092042 11 101 6.4 16.1 0.00 0.00 0.00 84 1004.8
20260510091550 11 108 11.3 19.3 0.00 0.00 0.00 85 1004.7
20260510091039 11 93 9.7 19.3 0.00 0.00 0.00 85 1004.5
20260510090539 11 93 11.3 19.3 0.00 0.00 0.00 85 1004.4
20260510090049 11 98 12.9 19.3 0.00 0.00 0.00 85 1004.4
20260510085539 11 104 11.3 16.1 0.00 0.00 0.00 85 1004.2
20260510085043 12 98 6.4 14.5 0.00 0.00 0.00 86 1004.2
20260510084548 12 98 9.7 14.5 0.00 0.00 0.00 86 1004.0
20260510084039 12 96 4.8 14.5 0.00 0.00 0.00 86 1003.9
20260510083539 12 98 8.0 14.5 0.00 0.00 0.00 87 1003.8
20260510083058 12 95 8.0 14.5 0.00 0.00 0.00 87 1003.7
20260510082538 12 103 8.0 12.9 0.00 0.00 0.00 88 1003.6
20260510082038 12 91 4.8 12.9 0.00 0.00 0.00 88 1003.5
20260510081547 12 103 4.8 12.9 0.00 0.00 0.00 89 1003.4
20260510081039 12 96 4.8 12.9 0.00 0.00 0.00 89 1003.4
20260510080543 12 106 4.8 17.7 0.00 0.00 0.00 88 1003.2
20260510080045 12 103 6.4 19.3 0.00 0.00 0.00 89 1003.1
20260510075539 12 106 12.9 19.3 0.00 0.00 0.00 90 1003.0
20260510075039 12 103 9.7 12.9 0.00 0.00 0.00 93 1003.0
20260510074549 12 92 6.4 11.3 0.00 0.00 0.00 94 1002.8
20260510074039 12 112 4.8 9.7 0.00 0.00 0.00 94 1002.7
20260510073539 12 91 1.6 6.4 0.00 0.00 0.00 93 1002.5
20260510073054 12 309 0.0 4.8 0.00 0.00 0.00 92 1002.5
20260510072539 12 309 1.6 4.8 0.00 0.00 0.00 93 1002.4
20260510072039 13 309 1.6 27.4 0.00 0.00 0.00 93 1002.3
20260510071549 12 0 9.7 27.4 0.00 0.00 0.00 94 1002.0
20260510071038 12 248 4.8 8.0 0.00 0.00 0.00 92 1001.9
20260510070538 12 0 0.0 1.6 0.00 0.00 0.00 92 1001.6
20260510070049 12 248 0.0 1.6 0.00 0.00 0.00 92 1001.4
20260510065542 12 248 0.0 1.6 0.00 0.00 0.00 92 1001.2
20260510065039 12 0 0.0 3.2 0.00 0.00 0.00 92 1001.2
20260510064551 13 0 0.0 3.2 0.00 0.00 0.00 92 1001.2
20260510064039 13 0 0.0 3.2 0.00 0.00 0.00 91 1001.1
20260510063539 13 0 0.0 3.2 0.00 0.00 0.00 91 1001.1
20260510063048 13 0 0.0 3.2 0.00 0.00 0.00 90 1001.1
20260510062542 13 96 0.0 3.2 0.00 0.00 0.00 90 1001.1
20260510062039 13 296 0.0 1.6 0.00 0.00 0.00 90 1001.0
20260510061548 13 0 0.0 1.6 0.00 0.00 0.00 89 1000.9
20260510061039 13 296 0.0 4.8 0.00 0.00 0.00 89 1000.8
20260510060540 13 0 0.0 11.3 0.00 0.00 0.00 89 1000.8
20260510060047 14 295 3.2 12.9 0.00 0.00 0.00 89 1000.9
20260510055539 14 288 4.8 12.9 0.00 0.00 0.00 89 1000.7
20260510055041 14 314 8.0 12.9 0.00 0.00 0.00 89 1000.7
20260510054549 14 273 4.8 12.9 0.00 0.00 0.00 88 1000.7
20260510054038 15 263 4.8 14.5 0.00 0.00 0.00 88 1000.7
20260510053539 15 238 6.4 14.5 0.00 0.00 0.00 88 1000.4
20260510053047 15 241 6.4 11.3 0.00 0.00 0.00 88 1000.5
20260510052539 15 279 4.8 11.3 0.00 0.00 0.00 88 1000.5
20260510052040 15 235 4.8 14.5 0.00 0.00 0.00 87 1000.4
20260510051557 15 253 6.4 14.5 0.00 0.00 0.00 87 1000.3
20260510051037 15 250 9.7 24.1 0.00 0.00 0.00 87 1000.3
20260510050539 15 250 12.9 24.1 0.00 0.00 0.00 87 1000.1
20260510050048 15 252 9.7 24.1 0.00 0.00 0.00 86 1000.0
20260510045539 15 232 11.3 22.5 0.00 0.00 0.00 86 999.9
20260510045038 15 247 9.7 20.9 0.00 0.00 0.00 86 999.9
20260510044547 15 240 11.3 19.3 0.00 0.00 0.00 86 999.7
20260510044039 15 286 9.7 24.1 0.00 0.00 0.00 86 999.7
20260510043539 15 283 11.3 24.1 0.00 0.00 0.00 85 999.5
20260510043050 15 261 9.7 24.1 0.00 0.00 0.00 85 999.3
20260510042540 16 298 11.3 25.7 0.00 0.00 0.00 84 999.2
20260510042039 16 313 9.7 25.7 0.00 0.00 0.00 84 999.4
20260510041547 16 281 11.3 24.1 0.00 0.00 0.00 84 999.3
20260510041039 16 252 12.9 24.1 0.00 0.00 0.00 84 999.4
20260510040539 16 294 14.5 29.0 0.00 0.00 0.00 84 999.3
20260510040051 16 263 17.7 29.0 0.00 0.00 0.00 83 999.2
20260510035538 16 349 14.5 29.0 0.00 0.00 0.00 84 999.1
20260510035038 16 271 12.9 30.6 0.00 0.00 0.00 84 999.2
20260510034547 16 271 16.1 30.6 0.00 0.00 0.00 84 999.0
20260510034040 16 254 14.5 32.2 0.00 0.00 0.00 83 999.2
20260510033538 16 239 14.5 32.2 0.00 0.00 0.00 83 999.1
20260510033047 16 238 14.5 30.6 0.00 0.00 0.00 84 999.0
20260510032541 16 248 16.1 37.0 0.00 0.00 0.00 83 998.9
20260510032039 16 250 16.1 37.0 0.00 0.00 0.00 83 998.8
20260510031550 16 309 17.7 35.4 0.00 0.00 0.00 83 998.8
20260510031038 16 278 19.3 40.2 0.00 0.00 0.00 84 998.8
20260510030538 16 251 14.5 40.2 0.00 0.00 0.00 84 998.8
20260510030100 16 271 16.1 29.0 0.00 0.00 0.00 83 998.7
20260510025539 16 252 16.1 29.0 0.00 0.00 0.00 83 998.9
20260510025039 16 265 14.5 27.4 0.00 0.00 0.00 85 998.9
20260510024547 16 260 19.3 27.4 0.00 0.00 0.00 83 998.9
20260510024039 16 269 14.5 32.2 0.00 0.00 0.00 84 998.7
20260510023539 16 245 16.1 37.0 0.00 0.00 0.00 84 998.6
20260510023047 16 228 19.3 38.6 0.00 0.00 0.00 83 998.5
20260510022542 16 338 17.7 40.2 0.00 0.00 0.00 83 998.5
20260510022039 16 299 22.5 43.5 0.00 0.00 0.00 81 998.5
20260510021545 16 295 24.1 43.5 0.00 0.00 0.00 82 998.4
20260510021039 16 305 16.1 48.3 0.00 0.00 0.00 84 998.3
20260510020542 16 259 24.1 48.3 0.00 0.00 0.00 83 998.1
20260510020051 16 311 19.3 37.0 0.00 0.00 0.00 84 998.1
20260510015538 16 234 19.3 37.0 0.00 0.51 0.00 83 998.1
20260510015039 16 242 20.9 37.0 0.00 0.51 0.00 82 998.1
20260510014547 16 336 22.5 40.2 0.00 0.51 0.00 82 998.0
20260510014039 16 252 20.9 40.2 0.00 0.51 0.00 82 997.9
20260510013540 16 259 22.5 40.2 0.00 0.51 0.00 80 997.9
20260510013046 16 241 17.7 54.7 0.00 0.51 0.00 83 998.3
20260510012542 16 271 20.9 54.7 0.00 0.51 0.00 82 998.2
20260510012039 16 327 17.7 40.2 0.00 0.51 0.00 82 998.2
20260510011550 16 255 22.5 40.2 0.00 0.51 0.00 82 998.3
20260510011039 16 249 25.7 41.8 0.00 0.51 0.00 81 998.2
20260510010539 16 248 17.7 41.8 0.00 0.51 0.00 81 998.1
20260510010044 16 280 22.5 43.5 0.00 0.51 0.00 80 998.1
20260510005539 16 244 22.5 43.5 0.00 0.53 0.00 80 998.1
20260510005039 16 255 19.3 45.1 0.00 0.53 0.00 80 998.2
20260510004552 16 234 20.9 46.7 0.00 0.53 0.00 82 998.2
20260510004039 16 294 20.9 46.7 0.00 0.53 0.00 82 998.1
20260510003540 16 279 24.1 40.2 0.00 0.53 0.00 82 998.3
20260510003047 16 287 19.3 40.2 0.00 0.53 0.00 83 998.3
20260510002538 16 275 16.1 40.2 0.00 0.53 0.00 84 998.3
20260510002039 16 254 22.5 41.8 0.00 0.53 0.00 83 998.3
20260510001556 16 262 27.4 41.8 0.00 0.53 0.00 82 998.4
20260510001039 16 288 17.7 32.2 0.00 0.53 0.00 82 998.6
20260510000541 16 294 16.1 41.8 0.00 0.53 0.00 82 998.7
20260510000048 16 285 24.1 41.8 0.00 0.53 0.00 82 998.7
20260509235539 16 274 17.7 35.4 0.00 0.53 0.00 82 998.7
20260509235039 16 221 22.5 40.2 0.00 0.53 0.00 82 998.7
20260509234549 16 269 20.9 40.2 0.00 0.53 0.00 83 998.8
20260509234043 16 254 16.1 38.6 0.00 0.53 0.00 83 998.6
20260509233544 16 286 19.3 45.1 0.00 0.53 0.00 83 998.9
20260509233049 16 290 20.9 45.1 0.00 0.53 0.00 84 999.1
20260509232542 16 283 20.9 43.5 0.00 0.53 0.00 84 999.1
20260509232039 16 261 22.5 43.5 0.00 0.53 0.00 83 999.2
20260509231548 16 267 17.7 40.2 0.00 0.53 0.00 82 999.2